Probability
3 3 3 3 3 3 3 3 3 3 3 3 3 3 3 3 3 4 4 4 3 3 3 3 3 3 3 3 3 3 3 3 3 3 3 3 3 3 3 3 3 3 3
3 3 3 3 3 3 3 3 3 3 3 3 3 3 3 3 3 3 4 3 3 3 3 3 3 3 3 3 3 3 3 3 3 3 3 3 3 3 3 3 3 3 3
3 3 3 3 3 3 3 3 3 3 3 3 3 3 3 3 3 3 3 3 3 3 3 3 3 3 4 3 3 3 3 3 3 3 3 3 3 3 3 3 3 3 3
1 2 2 2 3 3 3 3 3 3 3 3 3 3 3 3 3 3 3 3 3 3 3 3 4 4 5 4 3 3 3 3 3 3 3 3 3 3 3 3 3 3 3
0 1 1 1 1 2 3 3 3 3 3 3 3 3 3 3 3 3 3 3 3 3 3 4 4 5 6 5 5 4 3 3 3 3 3 3 3 3 3 3 3 3 3
0 0 0 0 0 1 1 2 2 2 2 3 3 3 3 3 3 3 3 3 3 3 3 3 4 4 5 5 6 6 5 4 4 4 4 3 3 3 3 3 3 3 3
0 0 0 0 0 0 0 1 1 1 1 1 2 2 2 2 3 3 3 3 3 3 3 3 4 4 4 5 5 6 6 5 5 6 5 4 3 3 3 3 3 3 3
0 0 0 0 0 0 0 0 0 0 0 0 1 1 1 1 1 2 2 3 3 3 3 4 5 5 6 5 5 6 6 6 6 6 5 4 4 3 3 3 4 3 3
0 0 0 0 0 0 0 0 0 0 0 0 0 0 0 0 0 1 1 1 2 2 3 3 4 5 6 6 5 5 5 5 5 5 5 6 6 5 4 4 4 4 3
0 0 0 0 0 0 0 0 0 0 0 0 0 0 0 0 0 0 0 0 1 1 1 2 3 3 5 5 4 4 4 4 4 5 5 6 6 5 5 4 4 3 3
0 0 0 0 0 0 0 0 0 0 0 0 0 0 0 0 0 0 0 0 0 0 0 1 1 1 2 3 3 3 3 3 3 4 4 4 4 4 4 4 4 3 3
0 0 0 0 0 0 0 0 0 0 0 0 0 0 0 0 0 0 0 0 0 0 0 0 0 0 0 1 2 4 4 4 3 3 3 3 3 3 3 4 3 3 3
0 0 0 0 0 0 0 0 0 0 0 0 0 0 0 0 0 0 0 0 0 0 0 0 0 0 0 0 1 3 4 4 4 3 4 4 4 3 3 3 3 3 3
0 0 0 0 0 0 0 0 0 0 0 0 0 0 0 0 0 0 0 0 0 0 0 0 0 0 0 0 0 1 2 3 3 3 5 5 5 4 4 4 3 3 3
0 0 0 0 0 0 0 0 0 0 0 0 0 0 0 0 0 0 0 0 0 0 0 0 0 0 0 0 0 0 0 1 1 2 4 5 6 6 5 5 4 3 3
0 0 0 0 0 0 0 0 0 0 0 0 0 0 0 0 0 0 0 0 0 0 0 0 0 0 0 0 0 0 0 0 0 1 1 3 4 4 4 4 3 3 3
0 0 0 0 0 0 0 0 0 0 0 0 0 0 0 0 0 0 0 0 0 0 0 0 0 0 0 0 0 0 0 0 0 0 0 1 1 1 1 1 1 1 2
0 0 0 0 0 0 0 0 0 0 0 0 0 0 0 0 0 0 0 0 0 0 0 0 0 0 0 0 0 0 0 0 0 0 0 0 0 0 0 0 0 0 1
0 0 0 0 0 0 0 0 0 0 0 0 0 0 0 0 0 0 0 0 0 0 0 0 0 0 0 0 0 0 0 0 0 0 0 0 0 0 0 0 0 0 0
0 0 0 0 0 0 0 0 0 0 0 0 0 0 0 0 0 0 0 0 0 0 0 0 0 0 0 0 0 0 0 0 0 0 0 0 0 0 0 0 0 0 0
0 0 0 0 0 0 0 0 0 0 0 0 0 0 0 0 0 0 0 0 0 0 0 0 0 0 0 0 0 0 0 0 0 0 0 0 0 0 0 0 0 0 0
0 0 0 0 0 0 0 0 0 0 0 0 0 0 0 0 0 0 0 0 0 0 0 0 0 0 0 0 0 0 0 0 0 0 0 0 0 0 0 0 0 0 0
0 0 0 0 1 1 1 0 0 0 0 0 0 0 0 0 0 0 0 0 0 0 0 0 0 0 0 0 0 0 0 0 0 0 0 0 0 0 0 0 0 0 0
0 0 0 0 1 2 1 0 0 0 0 0 0 0 0 0 0 0 0 0 0 0 0 0 0 0 0 0 0 0 0 0 0 0 0 0 0 0 0 0 0 0 0
0 0 0 0 1 1 0 0 0 0 0 0 0 0 0 0 0 0 0 0 0 0 0 0 0 0 0 0 0 0 0 0 0 0 0 0 0 0 0 0 0 0 0
0 0 0 0 0 0 0 0 0 0 0 0 0 0 0 0 0 0 0 0 0 0 0 0 0 0 0 0 0 0 0 0 0 0 0 0 0 0 0 0 0 0 0
Wind_Speed
3 3 2 2 2 1 2 2 2 2 1 1 1 3 4 4 4 4 4 12 13 13 14 14 14 14 14 13 13 12 12 12 11 10 10 11 12 12 12 12 11 11 10
3 3 2 2 1 1 2 2 2 2 1 1 1 2 3 4 4 4 4 7 13 13 14 15 15 15 14 14 14 13 12 12 11 11 10 11 11 11 11 11 11 11 10
4 3 3 2 1 1 2 2 1 2 1 1 1 1 2 3 4 4 5 4 5 11 14 14 15 15 15 15 15 14 13 12 12 12 11 10 10 11 11 11 11 10 10
4 4 3 2 1 2 2 2 2 2 1 1 1 1 1 2 3 3 4 4 3 4 9 14 14 13 14 15 15 15 14 13 12 12 12 11 11 11 11 11 11 10 10
4 4 3 2 2 2 2 2 2 2 1 0 1 1 1 1 2 3 3 4 4 4 4 8 11 12 13 14 15 15 15 15 14 14 13 13 12 11 11 11 11 11 11
4 4 3 3 3 3 2 2 2 2 1 0 0 1 0 1 1 2 3 3 4 4 4 4 5 6 11 12 13 14 15 15 15 15 15 14 14 13 12 12 12 12 12
4 4 3 3 3 3 2 2 2 2 2 1 2 2 3 2 0 1 2 2 3 3 4 4 3 3 3 9 10 12 13 14 14 14 14 15 15 14 13 13 13 12 12
4 4 4 3 3 3 4 3 3 2 2 2 2 2 2 3 3 1 0 1 1 1 3 4 4 4 3 2 5 9 11 13 14 14 14 14 14 14 14 15 14 14 13
4 4 4 4 4 3 3 3 3 3 2 2 2 3 3 1 1 3 2 1 0 0 1 2 4 4 4 3 3 6 9 10 12 14 14 14 13 13 14 15 15 15 15
4 4 4 4 4 3 3 3 3 2 3 2 2 2 2 3 2 1 3 2 1 0 1 1 2 3 3 3 4 7 8 8 9 11 11 12 12 13 14 16 17 17 17
3 4 5 5 4 3 4 4 3 3 2 2 1 1 2 2 2 2 0 3 3 2 1 1 1 1 2 3 3 5 8 8 8 9 9 10 11 12 13 15 17 18 18
2 4 5 4 4 3 3 3 3 4 3 3 2 2 2 2 1 2 1 1 1 2 2 1 1 1 1 2 4 6 7 7 7 8 8 9 10 11 12 14 15 16 17
2 2 4 3 3 3 3 3 3 3 3 3 2 1 1 1 1 2 2 1 1 2 3 2 1 1 1 1 2 4 5 6 7 7 8 8 9 10 11 12 14 15 16
3 3 4 3 3 3 3 3 2 2 2 2 3 2 2 1 1 1 2 2 1 2 2 3 2 1 1 1 2 3 3 6 6 7 8 8 8 8 8 9 11 12 13
4 4 4 4 3 3 3 3 2 2 2 2 2 2 2 1 2 2 2 2 3 1 2 3 2 2 2 1 2 2 2 5 7 8 8 9 9 9 9 9 10 10 11
4 5 4 4 3 3 3 3 2 1 2 1 1 2 2 1 2 2 2 2 2 3 1 2 2 2 2 2 3 2 4 6 7 8 9 10 11 11 11 11 11 11 11
5 5 4 4 3 3 3 3 2 2 2 1 1 2 1 1 1 1 1 2 1 2 1 3 2 2 2 3 3 3 3 3 4 8 10 10 11 11 11 11 12 12 12
5 5 4 4 3 3 3 3 2 2 2 2 1 1 1 1 1 1 1 1 0 1 2 2 2 2 3 3 3 3 3 3 3 7 9 10 10 10 10 11 11 12 12
5 4 4 4 4 3 3 3 3 3 3 3 2 2 2 1 1 1 1 1 1 0 1 1 2 2 2 2 2 3 3 3 4 5 7 8 9 9 10 10 11 11 12
5 5 4 4 4 4 4 3 3 3 2 2 2 3 3 3 3 3 2 2 1 0 0 1 2 2 2 3 1 2 3 3 4 4 5 5 6 8 10 10 11 12 12
6 5 5 4 4 4 4 4 4 4 3 2 2 2 3 4 6 5 3 3 3 2 1 1 2 2 2 2 2 2 2 3 4 3 3 3 3 4 5 8 10 12 13
5 5 5 5 4 4 6 8 6 4 4 3 3 3 4 4 5 7 8 7 7 5 4 3 3 3 5 4 3 2 2 2 4 3 1 4 3 4 5 5 9 12 13
5 5 5 5 5 6 7 8 8 5 4 4 4 4 4 4 4 3 5 6 7 9 9 6 5 6 5 5 3 3 3 4 5 4 1 5 4 5 6 7 12 13 14
6 5 5 6 5 6 9 9 9 5 4 5 5 5 5 5 5 5 4 4 5 6 7 7 7 8 8 7 6 5 5 4 5 4 3 4 5 5 6 6 10 13 14
6 5 5 6 6 6 10 11 9 3 4 5 5 5 6 6 9 8 5 5 6 6 8 10 11 11 12 12 8 3 3 3 5 5 3 4 4 4 5 6 8 11 12
6 6 5 6 7 7 10 12 10 4 4 5 4 5 7 8 9 9 6 5 7 8 6 5 6 8 8 10 11 8 6 5 5 5 4 4 4 2 4 4 4 4 5
Wind_Direction
142 141 143 143 157 151 157 163 169 165 156 164 144 147 150 155 160 165 179 185 184 183 182 182 180 178 177 175 175 173 171 168 166 166 166 165 164 162 161 159 158 156 154
137 138 138 137 144 154 160 165 173 162 153 133 131 136 147 156 166 173 184 191 191 189 190 189 186 185 184 183 182 180 179 176 173 172 174 174 171 170 168 166 166 164 162
130 132 130 125 133 137 128 115 114 108 118 119 113 136 144 164 171 183 184 184 194 199 198 195 193 191 189 189 189 187 186 184 181 179 178 178 177 176 175 175 175 173 170
120 116 113 110 107 104 110 113 101 97 92 105 132 175 152 172 178 189 184 184 187 198 205 205 200 196 195 195 195 193 191 190 188 186 184 184 184 184 183 183 183 181 179
113 108 101 91 86 83 82 106 93 113 125 144 211 193 181 189 191 186 185 186 189 189 194 211 207 202 201 201 201 200 197 195 195 195 194 193 192 190 190 191 190 188 188
106 105 98 87 86 82 67 73 83 76 114 155 360 21 289 228 199 188 194 190 192 196 192 201 209 209 208 205 204 203 203 202 202 202 202 201 200 197 196 197 197 196 195
103 97 96 89 86 88 84 82 87 68 43 59 65 21 359 358 318 230 205 190 201 200 192 197 199 195 209 212 208 208 209 209 206 207 208 206 205 203 201 202 202 202 201
108 104 97 95 92 89 72 62 71 77 32 50 108 89 31 1 352 352 341 187 195 188 192 199 201 197 200 198 212 216 218 218 213 211 211 210 208 206 206 207 206 206 206
105 103 103 98 91 92 89 76 76 88 69 21 68 126 129 186 314 339 347 360 18 184 212 215 208 199 201 198 203 216 222 222 219 218 215 214 212 211 211 212 212 211 211
113 112 107 101 93 92 91 81 81 89 97 59 20 43 123 152 136 2 338 347 353 346 255 238 213 204 201 196 206 205 214 218 218 219 219 214 214 216 218 219 220 218 217
105 109 109 104 100 95 93 84 79 78 87 97 69 40 45 50 77 121 358 334 346 327 302 258 237 202 207 194 199 210 213 214 214 218 224 224 221 220 224 228 229 227 225
92 106 109 105 106 101 97 94 86 84 83 85 78 76 94 91 86 114 134 304 322 315 325 315 261 231 216 196 206 206 210 213 217 221 228 232 230 230 232 235 237 236 234
123 127 114 113 112 113 106 97 84 78 82 84 81 80 87 109 153 137 123 115 354 321 340 338 308 273 226 199 214 208 212 217 222 224 231 236 239 240 241 242 243 241 240
153 144 132 129 120 115 109 97 85 85 87 83 75 78 73 45 80 119 140 132 59 349 347 321 324 323 304 229 225 212 231 231 231 234 238 244 247 249 250 249 250 248 246
149 141 135 129 123 117 113 103 92 85 88 84 82 82 77 42 53 72 104 131 137 122 310 305 321 322 312 271 242 224 239 244 240 241 243 246 248 249 250 250 250 251 250
140 138 138 140 138 130 125 115 106 93 103 95 100 84 71 52 48 55 77 93 127 149 211 277 276 287 304 299 255 247 253 257 253 250 250 251 251 251 250 250 249 248 247
149 149 153 153 152 149 141 129 142 134 126 105 87 103 90 86 66 42 62 75 90 128 172 282 284 295 309 307 306 289 276 265 266 263 260 258 259 259 256 253 251 249 247
163 163 160 160 168 165 161 156 167 153 154 164 163 120 117 111 80 58 70 66 76 148 164 263 300 309 296 288 287 289 285 276 267 271 266 262 260 259 258 257 254 251 249
171 168 161 171 181 180 177 177 175 172 175 182 183 179 199 161 182 215 184 195 238 181 153 197 271 286 291 299 311 304 299 298 289 280 272 267 265 266 264 260 256 253 252
173 180 181 184 186 185 183 184 180 177 182 191 195 198 204 197 207 211 212 216 210 219 229 225 271 289 293 301 324 308 312 307 299 299 293 286 280 278 272 269 263 258 254
185 185 185 189 188 187 193 188 189 187 191 210 233 237 232 226 220 209 204 205 195 200 223 246 267 286 290 301 290 277 285 299 294 279 291 292 293 288 283 275 269 262 256
190 185 189 190 197 205 198 196 187 183 187 199 225 251 258 253 242 234 232 218 201 199 212 220 238 247 260 255 255 259 266 303 299 284 283 287 276 276 274 265 263 261 258
189 191 198 195 203 216 212 207 197 181 194 210 221 234 249 243 234 235 251 252 241 235 220 206 225 239 245 242 239 259 251 242 249 257 261 279 276 274 271 271 266 265 263
189 195 203 203 205 222 217 213 207 196 211 228 229 227 232 248 243 228 234 250 255 254 241 227 226 239 242 241 228 234 246 259 265 263 212 256 271 268 276 272 269 266 265
192 197 197 199 205 224 221 218 208 197 228 245 246 239 229 237 246 235 226 245 264 271 262 245 236 243 249 250 242 234 248 254 275 276 217 218 259 271 275 272 270 267 265
195 197 204 207 208 220 225 222 209 196 226 246 255 253 242 239 246 238 220 226 249 261 266 278 272 269 262 262 252 226 223 231 248 268 244 207 246 263 290 274 269 271 270